Início
Estação Aeroclube
Estação São Gotardo
Temperatura
Umidade
Pressão Atmosférica
Vento
Precipitação
Configuração do gráfico
Período
v
     
 
v
   
Aplicar
Linhas e valores
etiquetasséries
The Temperatura média no período chart showing Mínima series, Máxima series, Média series, Sensação térmica series.
   
Hora
Temperatura média
Temperatura máxima
Temperatura mínima
Sensação térmica
Data: 01/12/2020
 15:00:0023,4923,9523,2224,51
 14:00:0023,1123,9522,5123,82
 13:00:0022,9323,4322,5123,81
 12:00:0022,923,6422,323,91
 11:00:0022,4723,0121,9123,33
 10:00:0022,1722,9620,8422,97
 09:00:0020,3821,519,0820,7
 08:00:0018,7519,8217,6918,51
 07:00:0017,0318,0516,1516,52
 06:00:0016,1416,3316,0515,39
 05:00:0016,2216,3316,1215,42
 04:00:0016,416,5116,3315,7
 03:00:0016,5916,6916,4815,89
 02:00:0016,8117,116,6916,45
 01:00:0017,0617,1417,0316,83
 00:00:0017,0417,216,9516,56
Data: 30/11/2020
 23:00:0017,2717,4117,1416,8
 22:00:0017,5217,7817,2417,18
 21:00:0017,6818,0117,617,02
 20:00:0018,1318,2417,7817,67
 19:00:0018,218,2418,1517,66
 18:00:0018,0618,1517,9717,39
 17:00:0018,218,7118,0517,71
 16:00:0018,9719,318,4618,63
 15:00:0019,519,9419,2319,36
 14:00:0020,1220,9119,7520,15
 13:00:0020,732120,5220,81
 12:00:0020,8321,1120,5221,1
 11:00:0021,0221,4220,7421,52
 10:00:0021,822,3821,2122,74
 09:00:0022,1722,7221,9223,31
 08:00:0022,0222,6121,723,39
 07:00:0020,6722,0919,2421,92
 06:00:0018,8119,3518,4219,7
 05:00:0018,4218,5818,3219,25
 04:00:0018,4818,5818,3219,36
 03:00:0018,6618,8118,5119,81
 02:00:0018,819,0218,6420,03
 01:00:0018,818,9818,6519,69
 00:00:0019,2119,718,8520,06
Data: 29/11/2020 (Continua na próxima página)
 23:00:0019,7319,9419,520,48
 22:00:0019,7419,8819,4720,47
 21:00:0019,9520,1319,6120,58
 20:00:0020,2520,4320,0420,83
 19:00:0020,6721,2120,4221,46
 18:00:0021,4622,121,0122,33
 17:00:0021,822,121,422,44
Página 1 de 4 (192 itens)
Anterior
[1]
2
3
4
Próxima